Skip Page Navigation
NASA JPL Caltech
NASA Logo - Jet Propulsion Laboratory + View the NASA Portal
+ Center for Near-Earth Object Studies
JPL Home Earth Solar System Stars & Galaxies Technology
JPL Solar System Dynamics
BODIES ORBITS EPHEMERIDES TOOLS PHYSICAL DATA DISCOVERY FAQ SITE MAP
IMPORTANT: The SSD Announcement email list is now available. Major changes are coming in the near future, including possible hostname and/or URL changes. To be notified of such changes, subscribe to this email list.

Please visit this page for more details.


JPL Small-Body Database Browser
Search: [ help ]  
14078 (1997 FQ3)
Classification: Main-belt Asteroid          SPK-ID: 2014078
Ephemeris | Orbit Diagram | Orbital Elements | Mission Design | Physical Parameters | Discovery Circumstances | Close-Approach Data ]

[ show orbit diagram ]
Orbital Elements at Epoch 2459000.5 (2020-May-31.0) TDB
Reference: JPL 26 (heliocentric ecliptic J2000)
 Element Value Uncertainty (1-sigma)   Units 
e .1608730777899026 3.3732e-08  
a 2.252790778916059 6.5774e-09 au
q 1.890377392695121 7.6549e-08 au
i 2.449899845771518 3.6765e-06 deg
node 1.63716242146388 7.7402e-05 deg
peri 332.6708354610969 7.8093e-05 deg
M 178.4508206779222 1.0566e-05 deg
tp 2458388.296560259246
(2018-Sep-26.79656026)
3.604e-05 TDB
period 1235.036283214686
3.38
5.4088e-06
1.481e-08
d
yr
n .2914894120057372 1.2766e-09 deg/d
Q 2.615204165136998 7.6355e-09 au
  Orbit Determination Parameters
   # obs. used (total)      1638  
   data-arc span      10410 days (28.50 yr)  
   first obs. used      1991-08-06  
   last obs. used      2020-02-05  
   planetary ephem.      DE431  
   SB-pert. ephem.      SB431-N16  
   condition code      0  
   norm. resid. RMS      .5167  
   source      ORB  
   producer      Otto Matic  
   solution date      2020-Feb-22 20:50:54  

Additional Information
 Earth MOID = .880818 au 
 Jupiter MOID = 2.73725 au 
 T_jup = 3.607 
[ show covariance matrix ]

Ephemeris | Orbit Diagram | Orbital Elements | Mission Design | Physical Parameters | Discovery Circumstances | Close-Approach Data ]

Physical Parameter Table
Parameter Symbol Value Units Sigma Reference Notes
absolute magnitude H 15.2   n/a MPO350915  

14078 (1997 FQ3)          Discovered 1997-Mar-31 by LINEAR at Socorro
Reference: 20000320/Numbers.arcLast Updated: 2004-04-19

[ hide close-approach data ]
Close-Approach Data   ...sorted by Date/Time (TDB)
Date/Time (TDB) Time Uncertainty
(days_HH:MM)
Body Nominal Distance (au) Minimum Distance (au) Maximum Distance (au) V-relative (km/s) V-infinity (km/s) JD (TDB) Time Uncertainty (minutes) Semi-major axis (km) Semi-minor axis (km) range-LOV angle (deg) N-sigma BP Orbit Ref. Reference Modified
2017-Apr-05 11:24 < 00:01 Amphi 0.0342585857537394 0.0342573108858434 0.0342598606254637 2.88884900602676 2.88884894793978 2457848.974886112 0.550442463137248 67.3487784822272 37.4961782959476 23.5858453925015 88537.5849539396 T 26 CATAB v2.0f-lin.ifort 2020-Feb-22 20:51:07 2020-Feb-22 20:51

Alternate Designations
 1997 FQ3 = 1991 PS15 = 1997 GS20 
Ephemeris | Orbit Diagram | Orbital Elements | Mission Design | Physical Parameters | Discovery Circumstances | Close-Approach Data ]
ABOUT SSD CREDITS/AWARDS PRIVACY/COPYRIGHT GLOSSARY LINKS
FirstGov 2020-Mar-28 09:51 UT
(server date/time)  
NASA Home Page
Site Manager:   Ryan S. Park
Webmaster  Alan B. Chamberlin